Date String (YYYY-MM-DD hh:mm:ss) UTC,Instrument flags,Ambient pressure (hPa),Sample flow (lpm),Bypass flow (lpm),Sample temperature (°C),Ambient temperature (°C),ASC tube jacket temperature (°C),LED temperature (°C),Box temperature (°C),Sample RH (%),Span deviation,Mass concentration (μg/m³),Mass concentration (μg/m³),Mass concentration (μg/m³)
DateTimeUTC,F1_M11,P_M11,Q1_M11,Q2_M11,T1_M11,T2_M11,T3_M11,T4_M11,T5_M11,U1_M11,ZSPAN_M11,X0_M11,X2_M11,X1_M11
2022-08-07 07:00:00,,0827.5,4.99,0.00,31.4,28.0,00.0,39.8,32.2,33.0,0000.0,0010.38,0005.45,0004.58
2022-08-07 07:01:00,,0827.5,5.00,0.00,31.3,27.8,00.0,39.8,32.1,32.9,0000.0,0010.38,0005.48,0004.59
2022-08-07 07:02:00,,0827.5,5.00,0.00,31.2,27.8,00.0,39.7,32.0,33.3,0000.0,0010.45,0005.48,0004.58
2022-08-07 07:03:00,,0827.5,4.99,0.00,31.1,27.9,00.0,39.7,32.0,32.9,0000.0,0010.46,0005.50,0004.59
2022-08-07 07:04:00,,0827.5,5.01,0.00,31.1,28.1,00.0,39.7,32.0,33.6,0000.0,0010.44,0005.50,0004.59
2022-08-07 07:05:00,,0827.5,5.00,0.00,31.0,28.2,00.0,39.6,32.0,33.5,0000.0,0009.94,0005.48,0004.58
2022-08-07 07:06:00,,0827.5,5.00,0.00,31.0,28.3,00.0,39.6,32.1,33.5,0000.0,0009.97,0005.46,0004.58
2022-08-07 07:07:00,,0827.5,4.99,0.00,30.9,28.4,00.0,39.6,32.1,33.9,0000.0,0010.21,0005.41,0004.58
2022-08-07 07:08:00,,0827.4,5.01,0.00,30.9,28.5,00.0,39.6,32.1,34.6,0000.0,0010.42,0005.39,0004.56
2022-08-07 07:09:00,,0827.4,5.00,0.00,30.9,28.6,00.0,39.6,32.1,33.3,0000.0,0010.63,0005.34,0004.54
2022-08-07 07:10:00,,0827.4,5.00,0.00,30.9,28.7,00.0,39.5,32.1,33.8,0000.0,0010.28,0005.32,0004.52
2022-08-07 07:11:00,,0827.4,5.00,0.00,30.9,28.8,00.0,39.5,32.1,34.1,0000.0,0009.91,0005.27,0004.51
2022-08-07 07:12:00,,0827.4,5.00,0.00,30.8,28.9,00.0,39.5,32.2,33.8,0000.0,0010.02,0005.22,0004.49
2022-08-07 07:13:00,,0827.4,5.00,0.00,30.8,28.9,00.0,39.5,32.2,34.1,0000.0,0010.12,0005.16,0004.47
2022-08-07 07:14:00,,0827.4,5.00,0.00,30.8,28.9,00.0,39.5,32.2,34.1,0000.0,0010.57,0005.19,0004.47
2022-08-07 07:15:00,,0827.4,5.00,0.00,30.8,28.4,00.0,39.4,32.0,33.9,0000.0,0011.12,0005.22,0004.46
2022-08-07 07:16:00,,0827.4,5.00,0.00,30.7,27.9,00.0,39.4,32.0,33.7,0000.0,0011.04,0005.22,0004.45
2022-08-07 07:17:00,,0827.3,5.01,0.00,30.6,27.7,00.0,39.4,31.9,33.6,0000.0,0010.99,0005.24,0004.44
2022-08-07 07:18:00,,0827.3,5.00,0.00,30.5,27.8,00.0,39.3,31.8,33.2,0000.0,0010.73,0005.26,0004.42
2022-08-07 07:19:00,,0827.2,5.00,0.00,30.5,27.9,00.0,39.3,31.8,33.3,0000.0,0010.59,0005.21,0004.39
2022-08-07 07:20:00,,0827.3,4.99,0.00,30.4,28.0,00.0,39.3,31.8,33.7,0000.0,0010.63,0005.20,0004.38
2022-08-07 07:21:00,,0827.3,5.01,0.00,30.4,28.1,00.0,39.2,31.8,33.8,0000.0,0010.71,0005.21,0004.37
2022-08-07 07:22:00,,0827.2,4.99,0.00,30.4,28.2,00.0,39.2,31.9,33.8,0000.0,0010.79,0005.24,0004.36
2022-08-07 07:23:00,,0827.2,5.00,0.00,30.4,28.3,00.0,39.2,31.9,33.9,0000.0,0010.67,0005.25,0004.34
2022-08-07 07:24:00,,0827.2,5.00,0.00,30.4,28.4,00.0,39.2,31.9,33.9,0000.0,0010.39,0005.26,0004.35
2022-08-07 07:25:00,,0827.1,5.02,0.00,30.4,28.5,00.0,39.1,31.9,33.7,0000.0,0009.95,0005.22,0004.33
2022-08-07 07:26:00,,0827.1,5.00,0.00,30.4,28.6,00.0,39.1,32.0,34.1,0000.0,0009.41,0005.19,0004.32
2022-08-07 07:27:00,,0827.1,4.99,0.00,30.4,28.7,00.0,39.1,32.0,34.4,0000.0,0009.41,0005.16,0004.32
2022-08-07 07:28:00,,0827.1,5.00,0.00,30.4,28.7,00.0,39.1,32.0,34.4,0000.0,0009.49,0005.18,0004.32
2022-08-07 07:29:00,,0827.2,4.99,0.00,30.4,28.8,00.0,39.1,32.0,34.1,0000.0,0009.73,0005.17,0004.33
2022-08-07 07:30:00,,0827.1,5.01,0.00,30.4,28.9,00.0,39.1,32.0,34.1,0000.0,0009.86,0005.20,0004.34
2022-08-07 07:31:00,,0827.0,4.99,0.00,30.4,28.9,00.0,39.1,32.0,34.2,0000.0,0009.53,0005.26,0004.37
2022-08-07 07:32:00,,0827.0,5.01,0.00,30.4,28.9,00.0,39.1,32.0,34.4,0000.0,0009.43,0005.28,0004.38
2022-08-07 07:33:00,,0827.0,4.99,0.00,30.4,28.4,00.0,39.1,31.9,34.4,0000.0,0009.42,0005.27,0004.40
2022-08-07 07:34:00,,0827.1,5.01,0.00,30.3,27.6,00.0,39.0,31.7,34.7,0000.0,0009.26,0005.24,0004.42
2022-08-07 07:35:00,,0827.0,5.00,0.00,30.2,27.2,00.0,39.0,31.6,35.3,0000.0,0009.36,0005.28,0004.43
2022-08-07 07:36:00,,0826.9,5.03,0.00,30.3,27.1,00.0,38.9,31.6,35.4,0000.0,0009.40,0005.28,0004.44
2022-08-07 07:37:00,,0826.9,4.99,0.00,30.5,27.2,00.0,38.9,31.7,34.9,0000.0,0009.53,0005.32,0004.46
2022-08-07 07:38:00,,0826.9,5.01,0.00,30.6,27.3,00.0,38.9,31.7,34.6,0000.0,0009.64,0005.38,0004.47
2022-08-07 07:39:00,,0827.0,5.00,0.00,30.7,27.5,00.0,38.9,31.7,34.5,0000.0,0009.94,0005.37,0004.47
2022-08-07 07:40:00,,0827.0,5.00,0.00,30.7,27.7,00.0,38.9,31.8,34.3,0000.0,0010.13,0005.38,0004.48
2022-08-07 07:41:00,,0826.9,5.00,0.00,30.7,27.9,00.0,38.9,31.8,33.9,0000.0,0010.46,0005.39,0004.48
2022-08-07 07:42:00,,0826.9,5.00,0.00,30.7,28.0,00.0,39.0,31.8,33.8,0000.0,0010.44,0005.33,0004.46
2022-08-07 07:43:00,,0826.8,5.00,0.00,30.7,28.1,00.0,39.0,31.7,33.7,0000.0,0010.53,0005.32,0004.45
2022-08-07 07:44:00,,0826.9,4.99,0.00,30.7,28.2,00.0,39.0,31.8,34.2,0000.0,0010.65,0005.34,0004.43
2022-08-07 07:45:00,,0827.0,5.00,0.00,30.7,28.3,00.0,39.0,31.8,34.6,0000.0,0010.89,0005.41,0004.44
2022-08-07 07:46:00,,0827.1,5.00,0.00,30.6,28.4,00.0,39.1,31.9,34.5,0000.0,0011.44,0005.47,0004.44
2022-08-07 07:47:00,,0826.8,5.00,0.00,30.6,28.5,00.0,39.1,31.9,34.4,0000.0,0011.92,0005.52,0004.45
2022-08-07 07:48:00,,0826.8,5.00,0.00,30.6,28.6,00.0,39.1,31.9,34.3,0000.0,0012.06,0005.56,0004.45
2022-08-07 07:49:00,,0826.8,5.00,0.00,30.6,28.7,00.0,39.1,31.9,34.2,0000.0,0012.18,0005.56,0004.45
2022-08-07 07:50:00,,0826.8,5.00,0.00,30.6,28.7,00.0,39.1,32.0,34.2,0000.0,0012.12,0005.58,0004.46
2022-08-07 07:51:00,,0826.8,5.00,0.00,30.6,28.8,00.0,39.1,32.0,33.8,0000.0,0011.84,0005.61,0004.48
2022-08-07 07:52:00,,0826.8,5.00,0.00,30.6,28.8,00.0,39.2,32.0,32.8,0000.0,0011.70,0005.55,0004.49
2022-08-07 07:53:00,,0826.9,4.99,0.00,30.6,28.9,00.0,39.2,32.0,32.7,0000.0,0011.84,0005.58,0004.49
2022-08-07 07:54:00,,0827.1,5.00,0.00,30.6,28.9,00.0,39.2,32.1,32.8,0000.0,0011.95,0005.59,0004.51
2022-08-07 07:55:00,,0826.9,5.01,0.00,30.6,28.9,00.0,39.2,32.1,32.6,0000.0,0011.89,0005.61,0004.52
2022-08-07 07:56:00,,0826.9,5.00,0.00,30.6,28.9,00.0,39.2,32.1,32.2,0000.0,0012.14,0005.54,0004.50
2022-08-07 07:57:00,,0827.0,4.99,0.00,30.6,28.5,00.0,39.2,32.0,32.5,0000.0,0011.62,0005.47,0004.49
2022-08-07 07:58:00,,0827.0,5.01,0.00,30.5,27.9,00.0,39.1,31.9,32.4,0000.0,0011.03,0005.38,0004.48
2022-08-07 07:59:00,,0827.2,5.01,0.00,30.5,27.6,00.0,39.1,31.8,32.3,0000.0,0010.82,0005.32,0004.47
